Other Public Products
Issued by NWS Grand Forks, ND

Home | Current Version | Previous Version | Text Only | Print | Product List | Glossary On
Versions: 1 2 3 4 5 6 7 8 9 10 11 12 13 14 15 16 17 18 19 20 21 22 23 24 25 26 27 28 29 30 31 32 33 34 35 36 37 38 39 40 41 42 43 44 45 46 47 48 49 50
000
FPUS83 KFGF 081510
OPUFGF
PRAIRIE TO PINES WEATHER ROUNDUP
NATIONAL WEATHER SERVICE EASTERN NORTH DAKOTA/GRAND FORKS ND
900 AM CST MON FEB 08 2016

 **SATELLITE DATA USED TO AUGMENT SKY COVER AT AUTOMATED STATIONS**
 *****  WEATHER ACROSS EASTERN NORTH DAKOTA  *****

CITY           SKY/WX    TMP DP  RH WIND       PRES   REMARKS
GRAND FORKS    LGT SNOW  14   8  77 N22G33    30.18S BLWGSNOWWCI  -4
GRAND FORKS AF LGT SNOW  13   8  79 N21       30.19R WCI  -5
GRAND CITY NWS   N/A     12 N/A N/A NW15        N/A  WCI  -4
BUXTON           N/A     13  11  94 N10         N/A  WCI  -1
DEVILS LAKE    FLURRIES  16  10  77 NW23G29   30.20R WCI  -2
FARGO          LGT SNOW  14   8  77 N21G31    30.17R WCI  -4
WAHPETON ARPT  CLOUDY    12   9  85 N26G35    30.14R WCI  -8
$$

 *****  WEATHER ACROSS CENTRAL AND WESTERN NORTH DAKOTA  *****

CITY           SKY/WX    TMP DP  RH WIND       PRES   REMARKS
JAMESTOWN      CLOUDY    19  10  68 N26G33    30.18R WCI   1
BISMARCK       CLEAR     27  17  66 NW16G22   30.29R WCI  15
MINOT          PTCLDY    24  14  65 W21       30.28R WCI   9
MINOT AFB      CLOUDY    22  17  81 NW18      30.27S WCI   7
GARRISON         N/A     21  17  84 NW16      30.28S WCI   7
WILLISTON      CLOUDY    23  16  74 CALM      30.37S
DICKINSON      CLOUDY    21  14  74 NW17      30.29F WCI   7
HETTINGER      CLOUDY    22  14  71 NW17      30.34R WCI   8
$$

 *****  OTHER OBSERVATIONS NORTHEAST NORTH DAKOTA  *****

CITY           SKY/WX    TMP DP  RH WIND       PRES   REMARKS
WALHALLA       LGT SNOW  10  10 100 N35       30.23R VSB 3/4 WCI -13
LANGDON        LGT SNOW  12   9  85 N23G30    30.17R WCI  -7
CAVALIER       LGT SNOW  14   7  73 N24G37    30.21R WCI  -5
GRAFTON        LGT SNOW  12  10  92 N29       30.21R VSB 3/4 WCI  -9
CANDO          NOT AVBL
FORT TOTTEN    NOT AVBL
ROLLA          FAIR      14  10  85 N26G32    30.19S WCI  -6
RUGBY          FAIR      16  14  93 NW15      30.24R WCI   1
 ***** THE ABOVE OBSERVATIONS ARE NON NWS ARE NOT QUALITY
        CONTROLLED AND MAY MIS-REPORT RAIN FOR SNOW...
$$

 *****  OTHER OBSERVATIONS SOUTHEAST NORTH DAKOTA *****

CITY           SKY/WX    TMP DP  RH WIND       PRES   REMARKS
COOPERSTOWN    NOT AVBL
VALLEY CITY    FLURRIES  16  10  79 N21G30    30.19R WCI  -2
OAKES          LGT SNOW  19  16  86 N18       30.17R WCI   4
GWINNER        CLOUDY    19  14  79 N17       30.17R WCI   4
SHEYENNE NWR     N/A     16   9  72 N17       29.95S WCI   0
BUFFALO          N/A     15   8  75 N24G38      N/A  WCI  -4
WYNDMERE       NOT AVBL
 ***** THE ABOVE OBSERVATIONS ARE NON NWS ARE NOT QUALITY
       CONTROLLED AND MAY MIS-REPORT RAIN FOR SNOW...
$$

  *****  WEATHER ACROSS NORTHERN MINNESOTA  *****

CITY           SKY/WX    TMP DP  RH WIND       PRES   REMARKS
FLAG ISLAND    CLOUDY     1  -2  85 NW20      30.05R WCI -20
WARROAD        CLOUDY     5  -2  72 NW18G28   30.07R WCI -15
ROSEAU         LGT SNOW   9   1  72 N18G26    30.09R WCI -10
HALLOCK        CLOUDY    10   7  85 N21G29    30.17R HAZE    WCI  -9
THF RVR FALLS  NOT AVBL
HALSTAD        NOT AVBL
FOSSTON        LGT SNOW   7   1  78 NW22G30   30.08R VSB 1   WCI -14
BAUDETTE       LGT SNOW   3  -4  72 NW20G29   30.01R WCI -18
WASKISH        CLOUDY     5   0  78 NW9G16    30.01R WCI  -9
CROOKSTON      LGT SNOW  10   9  92 N23G29    30.16S WCI -10
$$
  *****  WEATHER ACROSS CENTRAL AND WEST MINNESOTA  *****

CITY           SKY/WX    TMP DP  RH WIND       PRES   REMARKS
BEMIDJI        LGT SNOW   5   0  78 NW15      29.99R WCI -13
PARK RAPIDS    FLURRIES   8   0  69 NW17G26   29.97S WCI -10
WADENA         FLURRIES   7   1  78 NW22G28   29.99R WCI -14
DETROIT LAKES  LGT SNOW  10   5  79 N28G35    30.06R WCI -11
MOORHEAD       MIX PCPN  12   9  85 N24G33    30.16R WCI  -8
FERGUS FALLS   CLOUDY    10   7  85 N30G37    30.11R FOG     WCI -12
ELBOW LAKE     LGT SNOW  10   5  82 NW23G35   30.06R WCI -11
MORRIS MN      SNOW      12   9  85 N33G45    30.05R VSB 1/2 WCI -10
STAPLES        PTSUNNY    5  -2  72 NW15G21   29.98R WCI -13
WHEATON        LGT SNOW  16  10  79 NW28G38   30.15R WCI  -4
$$
  *****  WEATHER ELSEWHERE ACROSS MINNESOTA  *****

CITY           SKY/WX    TMP DP  RH WIND       PRES   REMARKS
DULUTH         LGT SNOW   8   2  76 N15G28    29.81R VSB 3/4 WCI  -9
INTRNTL FALLS  LGT SNOW   3  -2  79 NW16      29.95R VSB 3/4 WCI -16
ELY            LGT SNOW   7   3  85 NW9G18    29.82S WCI  -7
CLOQUET        LGT SNOW   7   1  78 NW17      29.84S WCI -12
BRAINERD       LGT SNOW   6   1  80 N17       29.95S WCI -13
HIBBING        MIX PCPN   4  -1  80 NW18      29.87R WCI -16
ALEXANDRIA     LGT SNOW   9   2  73 NW18G36   30.00R WCI -10
SAINT CLOUD    LGT SNOW   9   3  77 NW18G24   29.96R WCI -10
MINNEAPOLIS    CLOUDY    11   3  70 NW22G28   29.92R WCI  -8
$$

  *****  WEATHER ACROSS SOUTH DAKOTA  *****

CITY           SKY/WX    TMP DP  RH WIND       PRES   REMARKS
SIOUX FALLS    LGT SNOW  20  14  77 N24G31    30.08R BLWGSNOWWCI   3
BROOKINGS      LGT SNOW  17  12  80 N23       30.04R WCI  -1
WATERTOWN      FLURRIES  18  10  71 N30G38    30.07S WCI  -1
HURON          CLOUDY    23  16  74 N21G28    30.17R WCI   8
SISSETON         N/A     15  11  83 N23       30.13R WCI  -3
ABERDEEN       PTSUNNY   23  13  65 N30G43    30.19R WCI   5
MITCHELL       CLOUDY    26  19  74 N16G24    30.17R WCI  14
PIERRE         SUNNY     27  18  69 NW24G33   30.27R WCI  12
MOBRIDGE       CLEAR     25  17  72 NW15      30.24R WCI  13
RAPID CITY     CLOUDY    32  11  41 N22G35    30.33R WCI  19
$$

  *****  SOME WEATHER IN NEARBY STATES *****

CITY           SKY/WX    TMP DP  RH WIND       PRES   REMARKS
GLASGOW MT     CLOUDY    21  15  78 N6        30.40R WCI  13
GREAT FALLS MT CLOUDY    37  23  56 SW15      30.42S
CHEYENNE WY    CLOUDY    34  18  52 N21G29    30.34R WCI  22
SCOTTSBLUFF NE CLOUDY    27  14  58 NW15      30.38R WCI  15
OMAHA NE       PTSUNNY   27  17  66 NW30G44   30.04R WCI  11
DES MOINES IA  LGT SNOW  18  11  74 N26G45    29.94R VSB 3/4 WCI  -1
DAVENPORT IA   LGT SNOW  19  12  74 NW16      29.77R WCI   4
CHICAGO IL     FLURRIES  29  23  78 W12       29.64R WCI  19
EAU CLAIRE WI  CLOUDY    14   5  67 NW9G20    29.80R WCI   2
LA CROSSE WI   LGT SNOW  17  10  74 NW17      29.79R WCI   1
$$

  *****  SOME NATIONAL WEATHER *****

CITY           SKY/WX    TMP DP  RH WIND       PRES   REMARKS
LA GUARDIA NY  SNOW      30  28  93 NE10      29.82R VSB 1/2 WCI  21
RALEIGH NC     PTSUNNY   45  26  47 SE8       29.82F
ATLANTA GA     PTSUNNY   46  28  49 W10G20    29.83F
NEW ORLEANS LA MOSUNNY   55  37  50 W18       30.14R
OKLAHOMA CITY  SUNNY     38  17  42 NW21G32   30.30R
ALBUQUERQUE NM CLOUDY    31  19  61 NW8       30.46R WCI  23
SALT LAKE CITY MOCLDY    23  19  85 CALM      30.69R FOG
LOS ANGELES CA CLEAR     58  31  35 CALM      30.12R
BOISE ID       CLEAR     32  27  81 SE9       30.68S WCI  24
SEATTLE WA     PTCLDY    42  38  85 NE14      30.45F
$$

*** WEATHER ACROSS MANITOBA...SASKATCHEWAN AND ONTARIO ***
                ***ONTARIO***

CITY           SKY/WX    TMP DP  RH WIND       PRES   REMARKS
GERALDTON      LGT SNOW  -4  -9  77 N10       29.78S DRFTSNOWWCI -21
THUNDER BAY    LGT SNOW   5  -2  72 NW12G21   29.82R DRFTSNOWWCI -11
SIOUX LOOKOUT  FLURRIES  -2  -8  78 N10       29.92R WCI -19
TORONTO        CLOUDY    37  32  81 E15       29.68F
BIG TROUT LK   CLOUDY   -17 -22  76 N6        30.08S WCI -31
PICKLE LAKE    FLURRIES  -8 -15  71 N8        29.90S WCI -23
DRYDEN         LGT SNOW   3  -2  78 N10       29.91  WCI -12
KENORA         FLURRIES   0  -6  78 NW13G23   30.01R WCI -18
$$
                *** MANITOBA***

CITY           SKY/WX    TMP DP  RH WIND       PRES   REMARKS
BRANDON        MOCLDY     9   5  85 NW10      30.26R WCI  -6
DAUPHIN        CLOUDY    14   7  73 NW10      30.29R WCI   1
ISLAND LAKE    NOT AVBL
PILOT MOUND      N/A     12   9  85 N15         N/A  WCI  -4
THE PAS        CLOUDY     7   1  78 NW7       30.33S WCI  -5
THOMPSON       PTCLDY    -4 -11  71 NW8       30.26R WCI -19
WINNIPEG       FLURRIES   9   1  72 N29       30.22R WCI -14
LYNN LAKE      CLEAR    -15 -20  76 W8        30.28R WCI -32
GILLAM         FLURRIES  -2  -8  78 NW7       30.20S WCI -16
$$
                ***SASKATCHEWAN***

CITY           SKY/WX    TMP DP  RH WIND       PRES   REMARKS
ESTEVAN        CLOUDY    16  14  93 W9        30.34R WCI   4
KINDERSLEY     CLOUDY    23  19  86 S7        30.32F WCI  15
LLOYDMINSTER   CLOUDY    25  18  74 SW8       30.26S WCI  16
PRINCE ALBERT  MOCLDY     5   3  92 W2        30.33F
REGINA         MOCLDY    14  12  92 W3        30.36S
YORKTON        CLOUDY    16   9  73 NW12G17   30.29R WCI   3
N. BATTLEFORD  CLOUDY    21  16  79 S5        30.33F WCC1F1C2F2C3F3C4F4C5F5C6F6C7F7C8F8C9F9CaFaCbFbCcFcCdFdCe!


USA.gov is the U.S. government's official web portal to all federal, state and local government web resources and services.